Tracking 31013 objects as of 11-Jul-2025
HD Live streaming from Space Station
objects crossing your sky now

PEGASUS DEB

Track PEGASUS DEB now!
10-day predictions


NORAD ID: 24165
Int'l Code: 1994-029HQ
Perigee: 479.9 km
Apogee: 627.1 km
Inclination: 82.2 °
Period: 95.6 minutes
Semi major axis: 6924 km
RCS: 0.0387 m2 (small)
Launch date: May 19, 1994
Source: United States (US)
Launch site: AIR FORCE WESTERN TEST RANGE (AFWTR)

Note: This is SATELLITE DEBRIS
Your satellite tracking list
Your tracking list is empty




NASA's NSSDC Master Catalog

Two Line Element Set (TLE):
1 24165U 94029HQ  25191.23536742  .00034237  00000-0  20186-2 0  9990
2 24165  82.1589 127.0188 0106352  73.1334 288.1522 15.06679146509106
Source of the keplerian elements: AFSPC